User: anonymous   Login
Location: Cussy
(47.0410°N, 4.6412°E)
Time: 10:17:31
(UTC+00:00)
Language:

Meteor 1-4 Rocket - Orbit

View from above orbital plane
View from above orbital plane
View from above satellite
View from above satellite

Ground track
Ground track

The orbit data is extracted from the following two-line orbital elements,

1 04394U 70037B   21063.89478494  .00002222  00000-0  72617-4 0  9997
2 04394  81.2414 218.8551 0038551 161.4548 198.8104 15.30524451772594
Epoch (UTC): 04 March 2021 21:28:29
Eccentricity: 0.0038551
inclination: 81.2414°
perigee height: 448 km
apogee height: 500 km
right ascension of ascending node: 218.8551°
argument of perigee: 161.4548°
revolutions per day: 15.30524451
mean anomaly at epoch: 198.8104°
orbit number at epoch: 77259

The dashed part of the orbit path shows where the satellite is in the earth's shadow,  

DLR